Search your local weather  

 
Advertise Here

Hazardous Weather Conditions

No active alerts for DENVER, COLORADO

Current Conditions: DENVER, COLORADO

Light Rain


48.0 F

Last Updated on Apr 21 2019, 4:47 pm MDT
Humidity: 87%
Wind Speed: N 12.7 G 18.4 mph
Barometer 29.97 in
Dewpoint: 44.6 F
Visibility: 10.00 mi
Precip: --
Heat Index: NA
Wind Chill: 43 F
Current conditions at:

Broomfield / Jeffco, CO (KBJC)

Lat: 39.90 Lon: -105.10

Local Radar Image active severe weather and emergency alerts image image weather storm and storm spotter reports image weather observation monitoring service image
Local
Radar
Active
Alerts
Storm Reports Weather
Monitoring

Weather Alert Notification Services


ialert severe weather and emergency alerts by text message and email ialert daily weather forecast by email and text message service ialert real-time weather-observation monitoring and alert notification service ialert storm report monitoring alert notification

Observation History for DENVER, COLORADO


Time Wind
(mph)
Vis
(mi)
Weather Precip (in) Temperature (F) Relative
Humidity
Wind
Chill
(°F)
Heat
Index
(°F)
Pressure
Air Dwpt altimeter
(in)
sea level
(mb)
4:47 pm MDT N 12.7 G 18.4 10.00 Light Rain -- 48.0 44.6 87% 43 NA 29.97 M
3:45 pm MDT W 10.4 G 19.6 30.00 Light Rain -- 55.0 39.2 55% 52 NA 29.95 M
2:55 pm MDT NE 20.7 G 24.2 30.00 Overcast and Breezy -- 59.0 39.2 48% 55 NA 29.90 M
1:47 pm MDT SE 5.8 30.00 Mostly Cloudy -- 63.0 35.6 37% 63 NA 29.88 M
12:47 pm MDT S 5.8 30.00 Mostly Cloudy -- 59.0 35.6 42% 58 NA 29.86 M
11:45 am MDT N 6.9 30.00 Mostly Cloudy -- 66.0 32.0 28% NA NA 29.85 M
10:33 am MDT NE 10.4 50.00 Partly Cloudy -- 66.0 30.2 26% NA NA 29.84 M
9:48 am MDT 3.5 50.00 Partly Cloudy -- 64.0 30.2 28% NA NA 29.85 M
8:45 am MDT N 0.0 50.00 Partly Cloudy -- 63.0 32.0 32% NA NA 29.85 M
7:45 am MDT W 5.8 50.00 Partly Cloudy -- 57.0 35.6 44% 56 NA 29.85 M
6:45 am MDT NW 5.8 30.00 Mostly Cloudy -- 54.0 33.8 47% 53 NA 29.84 M
5:54 am MDT NE 3.5 10.00 Fair -- 55.0 32.0 41% NA NA 29.83 M
4:52 am MDT NE 12.7 10.00 Fair -- 57.0 30.2 36% 54 NA 29.82 M
3:54 am MDT NW 16.1 G 26.5 10.00 Fair -- 61.0 28.4 29% 59 NA 29.79 M
2:52 am MDT NW 9.2 10.00 Fair -- 61.0 26.6 27% 60 NA 29.78 M
1:54 am MDT NW 11.5 10.00 Fair -- 61.0 28.4 29% 59 NA 29.79 M
12:52 am MDT NW 12.7 G 18.4 10.00 Fair -- 61.0 28.4 29% 59 NA 29.79 M
11:54 pm MDT W 11.5 10.00 Fair -- 61.0 28.4 29% 59 NA 29.79 M
10:54 pm MDT W 10.4 10.00 Fair -- 59.0 30.2 34% 57 NA 29.80 M
9:47 pm MDT W 10.4 30.00 Mostly Cloudy -- 64.0 26.6 24% NA NA 29.81 M
8:47 pm MDT W 11.5 G 19.6 30.00 Mostly Cloudy -- 66.0 24.8 21% NA NA 29.82 M
7:50 pm MDT E 10.4 50.00 Mostly Cloudy -- 68.0 23.0 18% NA NA 29.81 M
6:50 pm MDT W 11.5 50.00 Mostly Cloudy -- 72.0 21.2 15% NA NA 29.78 M
5:47 pm MDT E 18.4 G 24.2 50.00 Mostly Cloudy -- 73.0 19.4 13% NA NA 29.77 M

Regional Weather Observation

Erie Municipal Airport, CO (KEIK)

Light Rain
48.0 F

Boulder Municipal Airport, CO (KBDU)

Rain
45.0 F

Fort Collins/Loveland - Northern Colorado Regional Airport, CO (KFNL)

Thunderstorm in Vicinity Light Rain and Breezy
51.0 F

Buckley Air Force Base Airport, CO (KBKF)

Mostly Cloudy
55.0 F

Denver, Denver International Airport, CO (KDEN)

Mostly Cloudy
52.0 F

Denver - Centennial Airport, CO (KAPA)

Mostly Cloudy
56.0 F
Advertise Here

Advertise Here